| time (UTC) | temp C | wind direction | speed KPH | gust KPH | rain 1hr cm | rain 24hr cm | rain mn cm | humidity % | barometer mb |
| 20260507050012 | 6 | 177 | 6.4 | 0.0 | 0.00 | 0.00 | 0.00 | 66 | 1009.0 |
| 20260507044509 | 6 | 304 | 6.4 | 0.0 | 0.00 | 0.00 | 0.00 | 69 | 1008.9 |
| 20260507043005 | 6 | 287 | 6.4 | 0.0 | 0.00 | 0.00 | 0.00 | 73 | 1008.8 |
| 20260507041505 | 6 | 298 | 6.4 | 0.0 | 0.00 | 0.00 | 0.00 | 76 | 1008.7 |
| 20260507040105 | 6 | 313 | 6.4 | 0.0 | 0.00 | 0.00 | 0.00 | 79 | 1008.6 |
| 20260507034601 | 7 | 244 | 6.4 | 0.0 | 0.00 | 0.00 | 0.38 | 81 | 1008.6 |
| 20260507033058 | 7 | 259 | 3.2 | 0.0 | 0.00 | 0.00 | 0.38 | 86 | 1008.7 |
| 20260507031557 | 7 | 263 | 4.8 | 0.0 | 0.00 | 0.00 | 0.38 | 86 | 1008.6 |
| 20260507030057 | 7 | 259 | 4.8 | 0.0 | 0.00 | 0.00 | 0.38 | 86 | 1008.7 |
| 20260507024601 | 7 | 284 | 3.2 | 0.0 | 0.00 | 0.00 | 0.38 | 86 | 1008.7 |
| 20260507023056 | 7 | 307 | 4.8 | 0.0 | 0.00 | 0.00 | 0.38 | 86 | 1008.7 |
| 20260507021559 | 7 | 271 | 4.8 | 0.0 | 0.00 | 0.00 | 0.38 | 85 | 1008.9 |
| 20260507020057 | 7 | 271 | 4.8 | 0.0 | 0.00 | 0.00 | 0.38 | 85 | 1008.9 |
| 20260507014558 | 7 | 278 | 4.8 | 0.0 | 0.00 | 0.00 | 0.38 | 84 | 1008.8 |
| 20260507013054 | 7 | 201 | 3.2 | 0.0 | 0.00 | 0.00 | 0.38 | 83 | 1009.0 |
| 20260507011553 | 7 | 259 | 4.8 | 0.0 | 0.00 | 0.00 | 0.38 | 83 | 1009.0 |
| 20260507010109 | 8 | 213 | 6.4 | 0.0 | 0.00 | 0.00 | 0.38 | 81 | 1008.9 |
| 20260507004552 | 8 | 269 | 4.8 | 0.0 | 0.00 | 0.00 | 0.38 | 79 | 1008.7 |
| 20260507003051 | 8 | 209 | 6.4 | 0.0 | 0.00 | 0.00 | 0.38 | 78 | 1008.7 |
| 20260507001557 | 8 | 211 | 4.8 | 0.0 | 0.00 | 0.00 | 0.38 | 78 | 1008.6 |
| 20260507000056 | 8 | 270 | 4.8 | 0.0 | 0.00 | 0.00 | 0.38 | 77 | 1008.4 |
| 20260506234550 | 8 | 215 | 4.8 | 0.0 | 0.00 | 0.00 | 0.38 | 76 | 1008.5 |
| 20260506233058 | 9 | 208 | 4.8 | 0.0 | 0.00 | 0.00 | 0.38 | 75 | 1008.3 |
| 20260506231548 | 9 | 277 | 3.2 | 0.0 | 0.00 | 0.00 | 0.38 | 73 | 1008.2 |
| 20260506230051 | 9 | 212 | 4.8 | 0.0 | 0.00 | 0.00 | 0.38 | 71 | 1008.1 |
| 20260506224552 | 9 | 228 | 3.2 | 0.0 | 0.00 | 0.00 | 0.38 | 71 | 1008.1 |
| 20260506223047 | 9 | 224 | 4.8 | 0.0 | 0.00 | 0.00 | 0.38 | 70 | 1008.0 |
| 20260506221549 | 10 | 166 | 3.2 | 0.0 | 0.00 | 0.00 | 0.38 | 70 | 1007.9 |
| 20260506220051 | 10 | 226 | 6.4 | 0.0 | 0.00 | 0.00 | 0.38 | 68 | 1008.0 |
| 20260506214550 | 10 | 193 | 4.8 | 0.0 | 0.00 | 0.00 | 0.38 | 66 | 1007.9 |
| 20260506213045 | 10 | 164 | 4.8 | 0.0 | 0.00 | 0.00 | 0.38 | 65 | 1007.9 |
| 20260506211551 | 10 | 180 | 3.2 | 0.0 | 0.00 | 0.00 | 0.38 | 67 | 1007.7 |
| 20260506210045 | 10 | 147 | 3.2 | 0.0 | 0.00 | 0.00 | 0.38 | 66 | 1007.6 |
| 20260506204545 | 10 | 115 | 4.8 | 0.0 | 0.00 | 0.00 | 0.38 | 64 | 1007.8 |
| 20260506203044 | 11 | 177 | 4.8 | 0.0 | 0.00 | 0.00 | 0.38 | 64 | 1007.9 |
| 20260506201543 | 11 | 260 | 3.2 | 0.0 | 0.00 | 0.00 | 0.38 | 64 | 1007.7 |
| 20260506200043 | 11 | 296 | 4.8 | 0.0 | 0.00 | 0.00 | 0.38 | 64 | 1007.8 |
| 20260506194540 | 11 | 192 | 1.6 | 0.0 | 0.00 | 0.00 | 0.38 | 75 | 1008.0 |
| 20260506193035 | 10 | 294 | 3.2 | 0.0 | 0.00 | 0.00 | 0.38 | 72 | 1007.9 |
| 20260506191534 | 9 | 197 | 3.2 | 0.0 | 0.00 | 0.00 | 0.38 | 75 | 1007.9 |
| 20260506190030 | 9 | 263 | 3.2 | 0.0 | 0.00 | 0.00 | 0.38 | 75 | 1008.1 |
| 20260506184527 | 8 | 202 | 0.0 | 0.0 | 0.00 | 0.00 | 0.38 | 76 | 1008.2 |
| 20260506183024 | 8 | 217 | 0.0 | 0.0 | 0.00 | 0.00 | 0.38 | 80 | 1008.2 |
| 20260506181520 | 7 | 205 | 0.0 | 0.0 | 0.00 | 0.00 | 0.38 | 80 | 1008.3 |
| 20260506180018 | 7 | 205 | 1.6 | 0.0 | 0.00 | 0.00 | 0.38 | 83 | 1008.4 |
| 20260506174519 | 7 | 81 | 1.6 | 0.0 | 0.00 | 0.00 | 0.38 | 83 | 1008.5 |
| 20260506173019 | 7 | 82 | 0.0 | 0.0 | 0.00 | 0.00 | 0.38 | 83 | 1008.4 |
| 20260506171520 | 6 | 82 | 0.0 | 0.0 | 0.00 | 0.00 | 0.38 | 85 | 1008.3 |
| 20260506170017 | 6 | 82 | 3.2 | 0.0 | 0.00 | 0.00 | 0.38 | 85 | 1008.1 |
| 20260506164517 | 6 | 86 | 1.6 | 0.0 | 0.00 | 0.00 | 0.38 | 86 | 1008.0 |
| 20260506163019 | 6 | 92 | 3.2 | 0.0 | 0.00 | 0.00 | 0.38 | 86 | 1008.2 |
| 20260506161516 | 6 | 107 | 1.6 | 0.0 | 0.00 | 0.00 | 0.38 | 87 | 1008.2 |
| 20260506160016 | 6 | 78 | 3.2 | 0.0 | 0.00 | 0.00 | 0.38 | 88 | 1008.5 |
| 20260506154515 | 6 | 98 | 3.2 | 0.0 | 0.00 | 0.00 | 0.38 | 88 | 1008.5 |
| 20260506153014 | 6 | 118 | 4.8 | 0.0 | 0.00 | 0.00 | 0.38 | 88 | 1008.9 |
| 20260506151512 | 6 | 98 | 0.0 | 0.0 | 0.00 | 0.00 | 0.38 | 90 | 1008.6 |
| 20260506150011 | 5 | 98 | 1.6 | 0.0 | 0.00 | 0.00 | 0.38 | 90 | 1008.8 |
| 20260506144524 | 5 | 98 | 0.0 | 0.0 | 0.00 | 0.00 | 0.38 | 90 | 1008.7 |
| 20260506143009 | 5 | 98 | 0.0 | 0.0 | 0.00 | 0.00 | 0.38 | 91 | 1008.6 |
| 20260506141507 | 5 | 97 | 3.2 | 0.0 | 0.00 | 0.00 | 0.38 | 91 | 1008.5 |
| 20260506140007 | 5 | 88 | 3.2 | 0.0 | 0.00 | 0.00 | 0.38 | 92 | 1008.3 |
| 20260506134506 | 5 | 123 | 0.0 | 0.0 | 0.00 | 0.00 | 0.36 | 93 | 1008.5 |
| 20260506133004 | 5 | 138 | 0.0 | 0.0 | 0.00 | 0.00 | 0.36 | 93 | 1008.3 |
| 20260506131558 | 5 | 139 | 1.6 | 0.0 | 0.00 | 0.00 | 0.36 | 93 | 1008.3 |
| 20260506130138 | 5 | 141 | 1.6 | 0.0 | 0.00 | 0.00 | 0.36 | 93 | 1008.3 |
| 20260506124556 | 5 | 142 | 3.2 | 0.0 | 0.00 | 0.00 | 0.36 | 93 | 1008.3 |
| 20260506123054 | 5 | 126 | 1.6 | 0.0 | 0.00 | 0.00 | 0.36 | 93 | 1008.3 |
| 20260506121555 | 5 | 127 | 0.0 | 0.0 | 0.00 | 0.00 | 0.33 | 93 | 1008.5 |
| 20260506120055 | 5 | 126 | 0.0 | 0.0 | 0.00 | 0.00 | 0.33 | 93 | 1008.4 |
| 20260506114552 | 5 | 126 | 0.0 | 0.0 | 0.00 | 0.00 | 0.33 | 93 | 1008.2 |
| 20260506113052 | 5 | 127 | 1.6 | 0.0 | 0.00 | 0.00 | 0.33 | 93 | 1008.0 |
| 20260506111546 | 5 | 125 | 3.2 | 0.0 | 0.00 | 0.00 | 0.33 | 92 | 1008.2 |
| 20260506110045 | 5 | 142 | 3.2 | 0.0 | 0.00 | 0.00 | 0.33 | 92 | 1008.0 |
| 20260506104552 | 5 | 134 | 3.2 | 0.0 | 0.00 | 0.00 | 0.33 | 92 | 1007.9 |
| 20260506103041 | 5 | 141 | 1.6 | 0.0 | 0.00 | 0.00 | 0.33 | 92 | 1008.0 |
| 20260506101538 | 5 | 233 | 0.0 | 0.0 | 0.00 | 0.00 | 0.33 | 91 | 1008.1 |
| 20260506100041 | 5 | 233 | 0.0 | 0.0 | 0.00 | 0.00 | 0.30 | 91 | 1008.4 |
| 20260506094536 | 5 | 234 | 0.0 | 0.0 | 0.00 | 0.00 | 0.28 | 91 | 1008.3 |
| 20260506093037 | 5 | 234 | 1.6 | 0.0 | 0.00 | 0.00 | 0.23 | 91 | 1008.2 |
| 20260506091607 | 5 | 139 | 1.6 | 0.0 | 0.00 | 0.00 | 0.23 | 91 | 1007.8 |
| 20260506090038 | 6 | 171 | 1.6 | 0.0 | 0.00 | 0.00 | 0.20 | 90 | 1007.9 |
| 20260506084537 | 6 | 207 | 0.0 | 0.0 | 0.00 | 0.00 | 0.15 | 90 | 1008.1 |
| 20260506083032 | 6 | 207 | 0.0 | 0.0 | 0.00 | 0.00 | 0.13 | 89 | 1008.4 |
| 20260506081527 | 6 | 207 | 1.6 | 0.0 | 0.00 | 0.00 | 0.08 | 89 | 1008.5 |
| 20260506073023 | 6 | 265 | 4.8 | 0.0 | 0.00 | 0.00 | 0.00 | 88 | 1008.3 |
| 20260506071522 | 6 | 281 | 3.2 | 0.0 | 0.00 | 0.00 | 0.00 | 87 | 1008.1 |
| 20260506061516 | 6 | 206 | 1.6 | 0.0 | 0.00 | 0.00 | 0.00 | 86 | 1007.8 |